QPF
0.01 0.01 0.05 0.05 0.04 0.03 0.04 0.04 0.03 0.04 0.03 0.03 0.03 0.02 0.02 0.02 0.03 0.03 0.03 0.03 0.03 0.03 0.04 0.05 0.05 0.05 0.04 0.04 0.02 0.02 0.02 0.02 0.02 0.03 0.03 0.05 0.04 0.03 0.03 0.02 0.01 0.02 0.03
0.01 0.01 0.04 0.05 0.04 0.03 0.03 0.03 0.02 0.03 0.03 0.04 0.02 0.03 0.03 0.03 0.03 0.03 0.04 0.05 0.05 0.04 0.04 0.04 0.04 0.04 0.05 0.03 0.02 0.01 0.01 0.01 0.01 0.01 0.01 0.02 0.02 0.02 0.03 0.02 0.02 0.03 0.04
0.01 0.01 0.03 0.05 0.04 0.04 0.04 0.03 0.02 0.02 0.03 0.04 0.03 0.05 0.05 0.04 0.04 0.03 0.03 0.04 0.05 0.04 0.05 0.06 0.04 0.04 0.04 0.02 0.02 0.01 0.02 0.02 0.01 0.01 0.01 0.01 0.01 0.02 0.02 0.03 0.04 0.04 0.04
0.01 0.01 0.03 0.06 0.06 0.04 0.04 0.04 0.03 0.02 0.03 0.03 0.04 0.04 0.05 0.05 0.04 0.03 0.03 0.03 0.04 0.04 0.04 0.04 0.04 0.04 0.04 0.02 0.01 0.01 0.02 0.01 0.01 0.01 0.00 0.00 0.01 0.03 0.03 0.03 0.02 0.03 0.03
0.01 0.01 0.03 0.05 0.07 0.07 0.05 0.04 0.04 0.03 0.03 0.04 0.05 0.05 0.04 0.04 0.03 0.03 0.04 0.04 0.04 0.03 0.03 0.03 0.03 0.03 0.04 0.02 0.01 0.01 0.01 0.01 0.01 0.00 0.00 0.00 0.01 0.03 0.04 0.03 0.02 0.02 0.03
0.01 0.02 0.03 0.05 0.06 0.07 0.06 0.06 0.06 0.05 0.04 0.05 0.05 0.05 0.04 0.03 0.03 0.03 0.03 0.03 0.02 0.03 0.03 0.03 0.03 0.03 0.03 0.02 0.01 0.01 0.01 0.01 0.00 0.00 0.00 0.00 0.01 0.03 0.04 0.04 0.03 0.03 0.02
0.01 0.01 0.02 0.04 0.07 0.06 0.07 0.08 0.08 0.08 0.07 0.08 0.06 0.05 0.04 0.03 0.03 0.02 0.02 0.02 0.03 0.02 0.03 0.03 0.04 0.02 0.02 0.01 0.01 0.01 0.01 0.01 0.00 0.00 0.00 0.00 0.01 0.04 0.04 0.05 0.04 0.04 0.03
0.01 0.01 0.02 0.03 0.05 0.07 0.07 0.06 0.09 0.11 0.09 0.08 0.06 0.06 0.05 0.03 0.02 0.02 0.01 0.01 0.03 0.03 0.04 0.04 0.04 0.03 0.02 0.02 0.02 0.01 0.01 0.00 0.00 0.00 0.00 0.00 0.02 0.05 0.03 0.03 0.04 0.04 0.03
0.01 0.01 0.01 0.01 0.03 0.05 0.07 0.07 0.09 0.10 0.10 0.08 0.06 0.05 0.04 0.03 0.02 0.02 0.02 0.01 0.01 0.02 0.03 0.03 0.03 0.03 0.02 0.02 0.02 0.02 0.01 0.00 0.00 0.01 0.00 0.01 0.03 0.05 0.04 0.03 0.04 0.04 0.02
0.01 0.01 0.01 0.02 0.03 0.03 0.04 0.05 0.06 0.09 0.11 0.09 0.08 0.06 0.05 0.04 0.03 0.03 0.01 0.01 0.01 0.02 0.02 0.03 0.04 0.03 0.02 0.01 0.01 0.01 0.01 0.00 0.01 0.01 0.00 0.01 0.03 0.04 0.04 0.04 0.05 0.06 0.05
0.01 0.01 0.01 0.02 0.02 0.04 0.06 0.05 0.04 0.06 0.08 0.07 0.06 0.06 0.04 0.04 0.03 0.02 0.02 0.02 0.01 0.01 0.02 0.03 0.05 0.06 0.03 0.01 0.01 0.00 0.00 0.00 0.00 0.01 0.01 0.02 0.03 0.03 0.03 0.03 0.03 0.05 0.06
0.01 0.01 0.01 0.02 0.02 0.02 0.05 0.07 0.07 0.06 0.05 0.04 0.04 0.04 0.03 0.02 0.03 0.02 0.03 0.02 0.02 0.02 0.01 0.02 0.02 0.04 0.04 0.03 0.02 0.01 0.00 0.00 0.00 0.00 0.01 0.03 0.04 0.03 0.03 0.03 0.03 0.03 0.04
0.01 0.02 0.02 0.02 0.02 0.02 0.02 0.03 0.05 0.07 0.07 0.04 0.03 0.03 0.03 0.03 0.02 0.02 0.03 0.02 0.02 0.02 0.01 0.01 0.02 0.03 0.04 0.04 0.04 0.03 0.02 0.01 0.00 0.00 0.01 0.03 0.04 0.05 0.04 0.04 0.04 0.04 0.03
0.02 0.02 0.03 0.03 0.03 0.03 0.03 0.03 0.03 0.04 0.05 0.05 0.03 0.03 0.02 0.03 0.03 0.02 0.02 0.02 0.02 0.02 0.02 0.01 0.01 0.02 0.03 0.04 0.05 0.04 0.04 0.03 0.01 0.01 0.01 0.02 0.03 0.05 0.05 0.04 0.05 0.06 0.05
0.03 0.03 0.04 0.04 0.05 0.04 0.03 0.03 0.03 0.03 0.04 0.04 0.04 0.04 0.05 0.04 0.04 0.04 0.03 0.03 0.02 0.01 0.01 0.01 0.01 0.02 0.02 0.03 0.03 0.04 0.04 0.05 0.04 0.02 0.01 0.01 0.02 0.04 0.05 0.05 0.05 0.06 0.06
0.03 0.04 0.05 0.05 0.06 0.06 0.05 0.04 0.04 0.04 0.04 0.05 0.04 0.04 0.05 0.07 0.07 0.06 0.05 0.05 0.04 0.02 0.02 0.02 0.02 0.02 0.02 0.02 0.03 0.03 0.03 0.03 0.04 0.05 0.03 0.02 0.02 0.03 0.04 0.06 0.07 0.07 0.07
0.02 0.04 0.05 0.05 0.06 0.07 0.06 0.06 0.06 0.08 0.08 0.07 0.07 0.06 0.05 0.06 0.07 0.07 0.06 0.06 0.05 0.04 0.03 0.02 0.02 0.02 0.02 0.02 0.02 0.03 0.03 0.03 0.03 0.04 0.05 0.05 0.04 0.03 0.05 0.09 0.08 0.08 0.08
0.01 0.02 0.03 0.04 0.04 0.05 0.06 0.07 0.07 0.07 0.09 0.09 0.10 0.11 0.09 0.07 0.05 0.05 0.05 0.05 0.05 0.05 0.04 0.02 0.02 0.02 0.02 0.02 0.01 0.02 0.03 0.03 0.03 0.03 0.04 0.05 0.05 0.04 0.05 0.10 0.09 0.07 0.08
0.01 0.01 0.02 0.03 0.04 0.04 0.05 0.06 0.07 0.06 0.07 0.07 0.06 0.07 0.08 0.09 0.09 0.07 0.05 0.04 0.04 0.04 0.04 0.02 0.02 0.01 0.02 0.02 0.02 0.02 0.02 0.02 0.03 0.03 0.04 0.03 0.03 0.03 0.04 0.08 0.08 0.07 0.08
0.00 0.01 0.02 0.02 0.03 0.05 0.05 0.05 0.06 0.07 0.07 0.06 0.06 0.06 0.05 0.05 0.06 0.07 0.06 0.04 0.04 0.05 0.05 0.05 0.03 0.03 0.03 0.03 0.03 0.03 0.03 0.03 0.03 0.03 0.03 0.04 0.03 0.02 0.04 0.05 0.05 0.06 0.07
0.00 0.00 0.01 0.01 0.02 0.04 0.05 0.05 0.05 0.05 0.07 0.08 0.07 0.07 0.07 0.07 0.06 0.05 0.05 0.05 0.04 0.04 0.05 0.06 0.06 0.05 0.04 0.04 0.04 0.04 0.04 0.04 0.03 0.03 0.03 0.04 0.03 0.02 0.02 0.02 0.03 0.03 0.05
0.01 0.01 0.01 0.01 0.02 0.02 0.03 0.04 0.05 0.05 0.06 0.07 0.08 0.08 0.07 0.07 0.08 0.07 0.05 0.04 0.04 0.04 0.04 0.04 0.06 0.06 0.06 0.05 0.04 0.04 0.05 0.04 0.04 0.03 0.04 0.04 0.04 0.02 0.02 0.02 0.02 0.02 0.03
0.00 0.00 0.00 0.01 0.02 0.03 0.03 0.04 0.06 0.06 0.06 0.06 0.07 0.09 0.10 0.08 0.07 0.08 0.08 0.06 0.05 0.05 0.04 0.03 0.03 0.04 0.05 0.06 0.05 0.04 0.04 0.03 0.03 0.03 0.03 0.04 0.04 0.03 0.02 0.02 0.02 0.02 0.02
0.00 0.00 0.00 0.00 0.01 0.03 0.04 0.04 0.05 0.06 0.06 0.05 0.06 0.07 0.10 0.13 0.12 0.09 0.08 0.07 0.06 0.05 0.04 0.04 0.04 0.03 0.03 0.04 0.06 0.06 0.05 0.03 0.03 0.03 0.03 0.03 0.03 0.03 0.03 0.03 0.03 0.02 0.02
0.00 0.00 0.00 0.00 0.00 0.01 0.04 0.05 0.04 0.04 0.05 0.06 0.06 0.07 0.08 0.10 0.13 0.13 0.11 0.08 0.07 0.06 0.05 0.05 0.05 0.04 0.04 0.03 0.04 0.05 0.05 0.04 0.04 0.04 0.03 0.03 0.03 0.03 0.02 0.02 0.02 0.02 0.02
0.00 0.00 0.00 0.00 0.00 0.00 0.01 0.04 0.06 0.05 0.05 0.06 0.05 0.06 0.07 0.08 0.09 0.11 0.13 0.11 0.08 0.06 0.05 0.04 0.04 0.04 0.04 0.03 0.03 0.03 0.04 0.04 0.04 0.05 0.04 0.04 0.03 0.03 0.02 0.02 0.01 0.01 0.02
MSLP
1016.48 1015.77 1014.98 1014.25 1013.68 1013.31 1013.17 1013.21 1013.36 1013.55 1013.71 1013.83 1013.89 1013.93 1013.98 1014.07 1014.21 1014.41 1014.62 1014.82 1014.97 1015.05 1015.06 1015.01 1014.92 1014.82 1014.74 1014.69 1014.65 1014.64 1014.63 1014.62 1014.61 1014.62 1014.64 1014.68 1014.75 1014.83 1014.92 1015.00 1015.05 1015.08 1015.10
1016.77 1015.90 1014.97 1014.13 1013.47 1013.05 1012.87 1012.89 1013.06 1013.28 1013.49 1013.67 1013.80 1013.90 1014.02 1014.17 1014.37 1014.61 1014.87 1015.10 1015.28 1015.38 1015.40 1015.36 1015.27 1015.17 1015.08 1015.01 1014.96 1014.93 1014.92 1014.91 1014.91 1014.92 1014.93 1014.97 1015.02 1015.08 1015.15 1015.21 1015.26 1015.30 1015.32
1017.06 1016.06 1015.03 1014.09 1013.36 1012.89 1012.68 1012.69 1012.86 1013.10 1013.35 1013.57 1013.75 1013.92 1014.09 1014.30 1014.54 1014.82 1015.10 1015.35 1015.54 1015.66 1015.69 1015.65 1015.57 1015.47 1015.38 1015.31 1015.26 1015.24 1015.24 1015.24 1015.24 1015.25 1015.26 1015.28 1015.31 1015.35 1015.39 1015.44 1015.48 1015.52 1015.56
1017.39 1016.32 1015.22 1014.24 1013.48 1012.97 1012.74 1012.73 1012.87 1013.11 1013.36 1013.60 1013.82 1014.03 1014.24 1014.48 1014.75 1015.04 1015.33 1015.58 1015.77 1015.89 1015.93 1015.90 1015.82 1015.73 1015.65 1015.59 1015.56 1015.56 1015.57 1015.59 1015.60 1015.61 1015.61 1015.61 1015.61 1015.62 1015.63 1015.66 1015.70 1015.76 1015.82
1017.80 1016.72 1015.62 1014.65 1013.89 1013.37 1013.12 1013.07 1013.18 1013.37 1013.60 1013.83 1014.05 1014.27 1014.50 1014.75 1015.02 1015.31 1015.59 1015.83 1016.01 1016.12 1016.16 1016.13 1016.07 1015.99 1015.93 1015.89 1015.88 1015.89 1015.93 1015.96 1015.98 1015.99 1015.97 1015.95 1015.92 1015.89 1015.87 1015.88 1015.92 1015.99 1016.09
1018.28 1017.27 1016.25 1015.34 1014.62 1014.12 1013.84 1013.75 1013.79 1013.93 1014.10 1014.29 1014.49 1014.70 1014.92 1015.17 1015.43 1015.70 1015.95 1016.17 1016.33 1016.41 1016.44 1016.41 1016.35 1016.28 1016.23 1016.21 1016.21 1016.24 1016.29 1016.33 1016.36 1016.36 1016.34 1016.28 1016.22 1016.16 1016.11 1016.10 1016.14 1016.23 1016.35
1018.86 1017.97 1017.08 1016.28 1015.63 1015.16 1014.86 1014.72 1014.69 1014.75 1014.85 1014.99 1015.15 1015.33 1015.54 1015.77 1016.02 1016.26 1016.48 1016.65 1016.77 1016.82 1016.82 1016.77 1016.71 1016.64 1016.58 1016.56 1016.57 1016.61 1016.66 1016.71 1016.73 1016.73 1016.69 1016.61 1016.52 1016.42 1016.35 1016.33 1016.36 1016.46 1016.60
1019.50 1018.78 1018.05 1017.40 1016.84 1016.41 1016.10 1015.91 1015.81 1015.78 1015.81 1015.89 1016.02 1016.18 1016.37 1016.59 1016.81 1017.01 1017.18 1017.31 1017.37 1017.38 1017.34 1017.26 1017.16 1017.07 1017.00 1016.96 1016.95 1016.98 1017.02 1017.06 1017.08 1017.06 1017.01 1016.92 1016.81 1016.69 1016.60 1016.56 1016.58 1016.69 1016.85
1020.16 1019.62 1019.07 1018.56 1018.11 1017.73 1017.43 1017.19 1017.03 1016.93 1016.91 1016.95 1017.05 1017.20 1017.39 1017.59 1017.78 1017.95 1018.07 1018.13 1018.13 1018.08 1017.98 1017.85 1017.71 1017.58 1017.47 1017.39 1017.35 1017.34 1017.36 1017.38 1017.39 1017.37 1017.31 1017.22 1017.09 1016.97 1016.86 1016.80 1016.82 1016.92 1017.09
1020.79 1020.42 1020.04 1019.68 1019.33 1019.00 1018.70 1018.45 1018.24 1018.11 1018.05 1018.08 1018.18 1018.34 1018.53 1018.72 1018.89 1019.01 1019.07 1019.06 1018.98 1018.86 1018.69 1018.50 1018.30 1018.12 1017.96 1017.83 1017.74 1017.70 1017.68 1017.68 1017.68 1017.66 1017.60 1017.51 1017.39 1017.26 1017.14 1017.07 1017.08 1017.16 1017.32
1021.37 1021.13 1020.89 1020.64 1020.38 1020.11 1019.83 1019.58 1019.37 1019.22 1019.17 1019.21 1019.33 1019.51 1019.70 1019.89 1020.02 1020.09 1020.08 1020.00 1019.85 1019.64 1019.41 1019.15 1018.90 1018.66 1018.44 1018.26 1018.12 1018.03 1017.98 1017.96 1017.95 1017.93 1017.89 1017.81 1017.70 1017.58 1017.46 1017.37 1017.36 1017.42 1017.56
1021.86 1021.72 1021.58 1021.43 1021.24 1021.02 1020.77 1020.54 1020.34 1020.22 1020.20 1020.28 1020.43 1020.63 1020.83 1021.00 1021.10 1021.11 1021.03 1020.87 1020.64 1020.36 1020.07 1019.76 1019.45 1019.16 1018.90 1018.67 1018.49 1018.35 1018.27 1018.23 1018.22 1018.21 1018.19 1018.13 1018.04 1017.93 1017.81 1017.71 1017.67 1017.70 1017.80
1022.28 1022.19 1022.12 1022.03 1021.89 1021.72 1021.51 1021.32 1021.16 1021.09 1021.11 1021.23 1021.42 1021.63 1021.84 1021.98 1022.03 1021.98 1021.83 1021.59 1021.30 1020.97 1020.62 1020.28 1019.94 1019.62 1019.33 1019.06 1018.84 1018.67 1018.56 1018.51 1018.49 1018.50 1018.50 1018.48 1018.41 1018.32 1018.20 1018.09 1018.01 1018.00 1018.07
1022.66 1022.59 1022.55 1022.49 1022.39 1022.25 1022.10 1021.95 1021.85 1021.83 1021.90 1022.06 1022.27 1022.49 1022.68 1022.78 1022.78 1022.67 1022.45 1022.15 1021.81 1021.45 1021.08 1020.72 1020.38 1020.05 1019.73 1019.44 1019.20 1019.01 1018.88 1018.81 1018.80 1018.82 1018.84 1018.85 1018.81 1018.73 1018.62 1018.50 1018.40 1018.34 1018.36
1023.05 1022.98 1022.93 1022.88 1022.80 1022.69 1022.57 1022.48 1022.43 1022.46 1022.58 1022.77 1022.99 1023.20 1023.35 1023.41 1023.35 1023.17 1022.91 1022.57 1022.21 1021.83 1021.47 1021.12 1020.79 1020.46 1020.14 1019.85 1019.58 1019.37 1019.22 1019.14 1019.13 1019.16 1019.21 1019.24 1019.23 1019.18 1019.07 1018.94 1018.81 1018.72 1018.68
1023.51 1023.40 1023.32 1023.25 1023.18 1023.09 1023.01 1022.96 1022.97 1023.05 1023.19 1023.39 1023.61 1023.79 1023.89 1023.89 1023.77 1023.55 1023.25 1022.90 1022.54 1022.19 1021.85 1021.53 1021.22 1020.91 1020.60 1020.29 1020.01 1019.78 1019.61 1019.51 1019.49 1019.53 1019.59 1019.64 1019.66 1019.62 1019.53 1019.40 1019.25 1019.12 1019.04
1024.05 1023.88 1023.76 1023.66 1023.57 1023.50 1023.45 1023.44 1023.49 1023.60 1023.76 1023.96 1024.15 1024.29 1024.34 1024.29 1024.13 1023.88 1023.57 1023.23 1022.89 1022.58 1022.28 1022.00 1021.72 1021.43 1021.12 1020.81 1020.51 1020.24 1020.04 1019.92 1019.88 1019.91 1019.97 1020.04 1020.08 1020.06 1019.99 1019.86 1019.70 1019.54 1019.41
1024.67 1024.44 1024.26 1024.12 1024.01 1023.94 1023.91 1023.93 1024.01 1024.14 1024.32 1024.50 1024.65 1024.75 1024.75 1024.66 1024.48 1024.22 1023.93 1023.62 1023.33 1023.06 1022.81 1022.57 1022.31 1022.03 1021.72 1021.39 1021.06 1020.76 1020.52 1020.36 1020.29 1020.30 1020.35 1020.42 1020.47 1020.48 1020.42 1020.30 1020.14 1019.97 1019.80
1025.34 1025.05 1024.81 1024.62 1024.49 1024.41 1024.40 1024.44 1024.55 1024.70 1024.87 1025.03 1025.16 1025.21 1025.18 1025.06 1024.87 1024.63 1024.36 1024.10 1023.86 1023.64 1023.44 1023.23 1022.99 1022.71 1022.39 1022.03 1021.66 1021.32 1021.04 1020.84 1020.73 1020.70 1020.73 1020.79 1020.84 1020.85 1020.81 1020.70 1020.55 1020.36 1020.17
1026.00 1025.67 1025.37 1025.14 1024.99 1024.91 1024.91 1024.98 1025.10 1025.26 1025.43 1025.58 1025.67 1025.70 1025.65 1025.52 1025.33 1025.11 1024.89 1024.67 1024.48 1024.31 1024.14 1023.95 1023.72 1023.43 1023.09 1022.70 1022.30 1021.93 1021.60 1021.35 1021.19 1021.12 1021.11 1021.14 1021.17 1021.18 1021.14 1021.04 1020.89 1020.71 1020.50
1026.61 1026.24 1025.92 1025.66 1025.49 1025.42 1025.43 1025.52 1025.66 1025.83 1026.00 1026.13 1026.21 1026.22 1026.15 1026.02 1025.86 1025.67 1025.48 1025.30 1025.15 1025.01 1024.86 1024.68 1024.44 1024.15 1023.79 1023.38 1022.96 1022.55 1022.19 1021.89 1021.68 1021.56 1021.50 1021.48 1021.47 1021.45 1021.40 1021.31 1021.17 1020.98 1020.77
1027.13 1026.75 1026.42 1026.16 1025.99 1025.93 1025.97 1026.08 1026.24 1026.41 1026.58 1026.70 1026.77 1026.76 1026.69 1026.57 1026.41 1026.25 1026.09 1025.94 1025.81 1025.68 1025.54 1025.35 1025.12 1024.81 1024.45 1024.04 1023.61 1023.19 1022.81 1022.48 1022.22 1022.04 1021.91 1021.83 1021.76 1021.70 1021.61 1021.51 1021.36 1021.18 1020.97
1027.52 1027.18 1026.87 1026.64 1026.49 1026.45 1026.51 1026.64 1026.82 1027.00 1027.17 1027.28 1027.33 1027.31 1027.24 1027.12 1026.97 1026.81 1026.67 1026.53 1026.41 1026.27 1026.12 1025.93 1025.69 1025.39 1025.04 1024.65 1024.25 1023.84 1023.45 1023.11 1022.81 1022.57 1022.37 1022.20 1022.05 1021.92 1021.79 1021.64 1021.48 1021.31 1021.11
1027.81 1027.54 1027.29 1027.10 1026.99 1026.99 1027.07 1027.22 1027.41 1027.60 1027.75 1027.86 1027.89 1027.86 1027.77 1027.65 1027.49 1027.34 1027.18 1027.04 1026.90 1026.75 1026.58 1026.39 1026.15 1025.87 1025.55 1025.21 1024.84 1024.48 1024.12 1023.77 1023.45 1023.15 1022.87 1022.61 1022.37 1022.15 1021.94 1021.75 1021.57 1021.39 1021.20
1028.02 1027.85 1027.68 1027.55 1027.49 1027.53 1027.64 1027.80 1028.00 1028.18 1028.32 1028.41 1028.43 1028.38 1028.28 1028.14 1027.97 1027.80 1027.62 1027.45 1027.29 1027.11 1026.93 1026.72 1026.50 1026.25 1025.98 1025.69 1025.39 1025.09 1024.77 1024.44 1024.10 1023.76 1023.41 1023.06 1022.72 1022.41 1022.12 1021.87 1021.65 1021.45 1021.27
1028.20 1028.13 1028.05 1027.99 1027.99 1028.05 1028.19 1028.36 1028.55 1028.72 1028.85 1028.92 1028.92 1028.85 1028.73 1028.57 1028.39 1028.19 1027.99 1027.79 1027.59 1027.39 1027.18 1026.97 1026.75 1026.54 1026.32 1026.10 1025.88 1025.64 1025.38 1025.08 1024.75 1024.37 1023.96 1023.54 1023.11 1022.71 1022.34 1022.02 1021.76 1021.55 1021.38
Thickness
5674 5677 5679 5680 5681 5682 5682 5683 5683 5684 5684 5685 5685 5686 5686 5687 5688 5689 5690 5690 5691 5693 5694 5695 5695 5696 5696 5697 5697 5698 5698 5698 5699 5699 5700 5700 5701 5702 5703 5703 5704 5705 5705
5671 5673 5675 5677 5677 5677 5678 5678 5678 5679 5680 5680 5680 5681 5682 5682 5683 5684 5685 5686 5687 5688 5689 5690 5690 5691 5691 5692 5692 5693 5693 5694 5694 5694 5695 5696 5696 5697 5698 5699 5700 5701 5701
5667 5668 5670 5672 5673 5673 5673 5673 5673 5674 5674 5675 5675 5676 5676 5677 5678 5679 5680 5681 5681 5682 5683 5684 5685 5686 5686 5686 5687 5688 5688 5688 5688 5689 5690 5691 5692 5693 5694 5695 5696 5697 5697
5662 5663 5665 5667 5667 5667 5667 5667 5668 5668 5668 5669 5670 5671 5671 5672 5672 5673 5674 5674 5675 5676 5677 5678 5679 5680 5680 5681 5682 5682 5683 5683 5683 5684 5685 5686 5687 5688 5689 5690 5691 5692 5692
5656 5657 5659 5660 5661 5661 5661 5661 5662 5662 5662 5663 5664 5664 5665 5666 5666 5667 5667 5668 5669 5670 5671 5672 5673 5673 5674 5675 5676 5676 5677 5677 5678 5678 5680 5681 5682 5683 5685 5686 5687 5687 5688
5648 5650 5652 5653 5654 5654 5655 5655 5655 5655 5656 5656 5657 5657 5658 5659 5660 5660 5661 5662 5662 5663 5664 5665 5666 5667 5668 5668 5669 5670 5671 5672 5672 5673 5674 5676 5677 5678 5680 5681 5682 5682 5683
5640 5642 5643 5645 5646 5646 5647 5647 5647 5648 5649 5649 5649 5650 5651 5651 5652 5653 5653 5654 5655 5656 5657 5658 5659 5660 5661 5662 5663 5664 5665 5665 5666 5667 5668 5670 5672 5673 5675 5676 5677 5677 5678
5632 5633 5634 5635 5636 5637 5638 5639 5639 5640 5640 5641 5641 5642 5643 5643 5644 5645 5646 5647 5648 5649 5650 5651 5652 5653 5654 5655 5656 5657 5658 5659 5660 5661 5662 5664 5666 5668 5669 5670 5671 5672 5673
5624 5624 5625 5626 5627 5628 5628 5629 5630 5631 5631 5632 5632 5633 5633 5634 5635 5636 5637 5639 5640 5641 5642 5643 5644 5645 5647 5648 5649 5650 5651 5652 5653 5654 5656 5658 5660 5662 5663 5665 5666 5667 5667
5614 5615 5615 5616 5617 5618 5618 5619 5620 5620 5621 5622 5622 5623 5623 5624 5625 5626 5628 5630 5631 5633 5634 5635 5636 5637 5639 5640 5641 5642 5643 5645 5646 5648 5649 5651 5654 5656 5657 5659 5660 5661 5662
5604 5605 5605 5607 5608 5608 5608 5608 5609 5610 5610 5611 5612 5612 5613 5615 5616 5617 5618 5620 5622 5623 5624 5626 5628 5629 5630 5631 5633 5634 5636 5637 5638 5640 5642 5645 5647 5649 5651 5652 5654 5655 5656
5594 5594 5595 5596 5597 5598 5598 5598 5598 5600 5600 5601 5602 5602 5603 5605 5606 5607 5609 5610 5612 5613 5615 5616 5618 5619 5621 5623 5624 5626 5628 5629 5631 5632 5635 5637 5640 5642 5644 5646 5648 5649 5650
5583 5583 5584 5586 5586 5587 5587 5588 5588 5589 5590 5590 5591 5592 5593 5595 5596 5597 5598 5600 5601 5603 5604 5606 5608 5610 5611 5614 5616 5617 5619 5621 5623 5624 5627 5629 5632 5635 5637 5639 5641 5642 5643
5573 5573 5574 5575 5576 5577 5577 5578 5578 5578 5579 5579 5580 5582 5583 5584 5585 5587 5588 5589 5591 5592 5594 5596 5598 5599 5601 5604 5606 5608 5610 5612 5614 5616 5618 5621 5624 5627 5630 5632 5634 5635 5636
5563 5563 5563 5565 5566 5567 5567 5567 5567 5567 5568 5568 5569 5571 5573 5574 5575 5576 5577 5579 5580 5582 5584 5586 5588 5590 5591 5594 5596 5598 5601 5603 5605 5607 5610 5612 5615 5619 5622 5624 5626 5628 5629
5553 5552 5553 5554 5555 5556 5556 5556 5556 5557 5557 5558 5560 5561 5562 5564 5565 5566 5567 5568 5570 5572 5573 5575 5577 5579 5581 5583 5586 5588 5590 5593 5595 5598 5601 5603 5606 5609 5612 5615 5618 5620 5622
5541 5541 5542 5543 5543 5544 5545 5545 5545 5546 5547 5548 5549 5550 5551 5553 5554 5556 5557 5558 5559 5561 5563 5565 5566 5568 5570 5573 5575 5578 5580 5582 5584 5588 5591 5594 5597 5600 5602 5606 5609 5611 5614
5529 5529 5529 5530 5531 5532 5533 5534 5534 5534 5535 5536 5537 5538 5540 5541 5543 5545 5546 5547 5549 5550 5552 5554 5555 5556 5558 5561 5563 5567 5569 5571 5574 5577 5580 5583 5586 5589 5592 5595 5599 5601 5604
5516 5516 5517 5517 5518 5519 5520 5521 5522 5522 5523 5524 5526 5527 5528 5530 5532 5534 5536 5537 5538 5539 5540 5542 5544 5545 5546 5549 5552 5555 5558 5560 5563 5566 5569 5572 5575 5578 5581 5584 5587 5590 5593
5502 5502 5503 5504 5505 5505 5506 5508 5509 5510 5511 5512 5513 5514 5516 5518 5521 5523 5525 5526 5527 5528 5529 5530 5532 5533 5534 5536 5540 5543 5546 5549 5552 5555 5557 5560 5563 5566 5569 5572 5576 5579 5582
5489 5489 5489 5490 5490 5491 5492 5494 5495 5496 5498 5499 5501 5502 5504 5506 5509 5511 5513 5514 5516 5517 5517 5519 5520 5521 5522 5524 5527 5530 5534 5537 5540 5542 5545 5548 5550 5553 5557 5560 5564 5567 5570
5474 5474 5475 5475 5476 5477 5478 5479 5481 5482 5484 5485 5488 5490 5492 5494 5496 5498 5501 5502 5504 5505 5506 5507 5509 5509 5509 5511 5512 5515 5519 5524 5527 5530 5532 5536 5537 5540 5544 5548 5551 5555 5558
5460 5459 5461 5460 5462 5463 5464 5466 5467 5469 5471 5472 5475 5477 5478 5481 5483 5485 5487 5490 5491 5493 5494 5495 5496 5498 5498 5498 5499 5501 5505 5509 5510 5515 5518 5522 5524 5527 5531 5535 5539 5542 5546
5446 5445 5445 5446 5447 5448 5450 5451 5452 5454 5455 5457 5459 5463 5465 5467 5470 5473 5475 5477 5479 5481 5482 5483 5484 5486 5486 5486 5486 5488 5491 5493 5495 5500 5504 5507 5511 5514 5518 5522 5525 5529 5533
5432 5431 5431 5432 5433 5434 5435 5437 5438 5439 5440 5443 5446 5449 5452 5454 5456 5459 5462 5464 5465 5467 5469 5470 5471 5473 5474 5475 5475 5476 5477 5479 5482 5486 5490 5493 5497 5501 5504 5508 5512 5516 5520
5419 5418 5418 5419 5419 5420 5421 5422 5424 5425 5427 5429 5431 5434 5438 5440 5442 5445 5448 5450 5452 5454 5456 5457 5458 5460 5462 5463 5463 5464 5466 5468 5470 5472 5475 5478 5482 5487 5491 5495 5499 5503 5507